Nantucket, MA

6:10 AM EST on January 23, 2017 (GMT -0500)
Nantucket Memorial

Weather History for KACK - January, 2012

Change the Weather History Date:

Friday, January 20, 2012

  Actual Average Record
Temperature  
Mean Temperature 34 °F -  
Max Temperature 39 °F 36 °F 50 °F (2013)
Min Temperature 28 °F 21 °F 9 °F (1977)
Degree Days  
Heating Degree Days 32    
Moisture  
Dew Point 26 °F    
Average Humidity 78    
Maximum Humidity 100    
Minimum Humidity 47    
Precipitation  
Precipitation 0.16 in - - ()
Sea Level Pressure  
Sea Level Pressure 30.05 in    
Wind  
Wind Speed 12 mph (WNW)    
Max Wind Speed 26 mph    
Max Gust Speed 36 mph    
Visibility 8 miles    
Events Rain , Snow    
Averages and records for this station are not official NWS values.
T = Trace of Precipitation, MM = Missing Value Source: NWS Daily Summary

Daily Weather History Graph

Daily Weather History Graph

Search for Another Location

Airport or City:

Trip Planner

Search our weather history database for the weather conditions in past years. The results will help you decide how hot, cold, wet, or windy it might be!

Date:

Astronomy

Jan. 20, 2012 Rise Set
Actual Time 7:01 AM EST 4:41 PM EST
Civil Twilight 6:31 AM EST 5:11 PM EST
Nautical Twilight 5:57 AM EST 5:45 PM EST
Astronomical Twilight 5:24 AM EST 6:18 PM EST
Moon 4:36 AM EST (1/20) 2:08 PM EST (1/20)
Length of Visible Light 10h 40m
Length of Day
9h 39m
Waning Crescent, 8% of the Moon is Illuminated
Jan 20
Waning Crescent
Jan 23
New
Jan 30
First Quarter
Feb 7
Full
Feb 14
Last Quarter

Hourly Weather History & Observations

Time (EST) Temp. Windchill Dew Point Humidity Pressure Visibility Wind Dir Wind Speed Gust Speed Precip Events Conditions
12:53 AM 39.9 °F 29.0 °F 33.1 °F 77% 29.96 in 10.0 mi SW 26.5 mph 35.7 mph 0.04 in   Overcast
1:10 AM 39.2 °F 29.0 °F 33.8 °F 81% 29.96 in 10.0 mi West 21.9 mph 33.4 mph 0.00 in Rain Light Rain
1:24 AM 37.4 °F 28.5 °F 33.8 °F 87% 29.96 in 10.0 mi West 15.0 mph 25.3 mph 0.00 in Rain Light Rain
1:53 AM 37.0 °F 29.3 °F 34.0 °F 89% 29.96 in 9.0 mi WNW 11.5 mph - 0.00 in Rain Light Rain
2:29 AM 35.6 °F 27.5 °F 33.8 °F 93% 29.96 in 9.0 mi WNW 11.5 mph - 0.02 in Rain Light Rain
2:53 AM 35.1 °F 27.9 °F 34.0 °F 96% 29.96 in 10.0 mi WNW 9.2 mph - 0.02 in Rain Light Rain
3:25 AM 33.8 °F 26.4 °F 33.8 °F 100% 29.96 in 5.0 mi WNW 9.2 mph - 0.01 in Snow Light Snow
3:39 AM 33.8 °F 27.7 °F 33.8 °F 100% 29.96 in 4.0 mi WNW 6.9 mph - 0.02 in Snow Light Snow
3:49 AM 33.8 °F 29.6 °F 33.8 °F 100% 29.95 in 6.0 mi NW 4.6 mph - 0.02 in Snow Light Snow
3:53 AM 34.0 °F 31.0 °F 33.1 °F 96% 29.95 in 7.0 mi NNW 3.5 mph - 0.02 in Snow Light Snow
4:48 AM 33.8 °F - 33.8 °F 100% 29.94 in 1.8 mi Calm Calm - 0.02 in Snow Light Snow
4:49 AM 33.1 °F - 33.1 °F 100% 29.94 in 1.5 mi Calm Calm - 0.02 in Snow Light Snow
4:57 AM 33.8 °F - 32.0 °F 93% 29.94 in 0.8 mi Calm Calm - 0.02 in Snow Light Snow
5:24 AM 33.8 °F - 33.8 °F 100% 29.95 in 1.5 mi Calm Calm - 0.05 in Snow Light Snow
5:34 AM 33.8 °F 29.6 °F 32.0 °F 93% 29.96 in 2.5 mi NW 4.6 mph - 0.06 in Snow Light Snow
5:41 AM 33.8 °F 30.8 °F 32.0 °F 93% 29.96 in 4.0 mi WNW 3.5 mph - 0.06 in Snow Light Snow
5:53 AM 34.0 °F 26.6 °F 32.0 °F 92% 29.97 in 7.0 mi NW 9.2 mph - 0.06 in Rain , Snow Light Snow
6:27 AM 33.8 °F 28.6 °F 33.8 °F 100% 29.97 in 10.0 mi WNW 5.8 mph - 0.00 in Rain , Snow Light Snow
6:53 AM 34.0 °F 28.0 °F 32.0 °F 92% 29.99 in 4.0 mi WNW 6.9 mph - 0.00 in Rain , Snow Light Snow
7:09 AM 33.8 °F 29.6 °F 32.0 °F 93% 29.99 in 9.0 mi West 4.6 mph - 0.00 in   Overcast
7:53 AM 34.0 °F 28.0 °F 28.9 °F 82% 30.01 in 10.0 mi WNW 6.9 mph - 0.00 in   Scattered Clouds
8:53 AM 35.1 °F 25.9 °F 27.0 °F 72% 30.04 in 10.0 mi WNW 13.8 mph - N/A   Clear
9:53 AM 35.1 °F 25.2 °F 26.1 °F 70% 30.05 in 10.0 mi NW 16.1 mph - N/A   Clear
10:53 AM 34.0 °F 23.0 °F 27.0 °F 75% 30.05 in 10.0 mi NW 18.4 mph 23.0 mph N/A   Clear
11:41 AM 33.8 °F 23.5 °F 26.6 °F 75% 30.05 in 10.0 mi NW 16.1 mph - N/A   Mostly Cloudy
11:49 AM 33.8 °F 23.9 °F 26.6 °F 75% 30.06 in 10.0 mi NW 15.0 mph - N/A   Partly Cloudy
11:53 AM 35.1 °F 24.8 °F 27.0 °F 72% 30.06 in 10.0 mi WNW 17.3 mph 21.9 mph N/A   Partly Cloudy
12:53 PM 35.1 °F 25.2 °F 23.0 °F 61% 30.06 in 10.0 mi NW 16.1 mph 23.0 mph N/A   Clear
1:53 PM 33.1 °F 23.9 °F 19.9 °F 59% 30.09 in 10.0 mi West 12.7 mph - N/A   Clear
2:53 PM 33.1 °F 24.4 °F 17.1 °F 52% 30.12 in 10.0 mi WNW 11.5 mph 21.9 mph N/A   Clear
3:53 PM 32.0 °F 22.5 °F 16.0 °F 52% 30.15 in 10.0 mi WNW 12.7 mph - N/A   Clear
4:53 PM 28.9 °F 21.1 °F 14.0 °F 54% 30.17 in 10.0 mi NW 8.1 mph - N/A   Clear
5:53 PM 28.0 °F 20.0 °F 12.9 °F 53% 30.21 in 10.0 mi WNW 8.1 mph - N/A   Clear
6:53 PM 28.0 °F 19.3 °F 12.9 °F 53% 30.23 in 10.0 mi NW 9.2 mph - N/A   Clear
7:53 PM 28.9 °F 20.4 °F 10.9 °F 47% 30.24 in 10.0 mi NNW 9.2 mph - N/A   Clear
8:53 PM 28.9 °F 19.2 °F 12.0 °F 49% 30.25 in 10.0 mi NW 11.5 mph - N/A   Clear
9:53 PM 28.9 °F 18.6 °F 10.9 °F 47% 30.27 in 10.0 mi NNW 12.7 mph - N/A   Clear
10:53 PM 28.0 °F 20.8 °F 12.9 °F 53% 30.27 in 10.0 mi NNW 6.9 mph - N/A   Clear
11:53 PM 28.0 °F - 12.9 °F 53% 30.28 in 10.0 mi Calm Calm - N/A   Clear